Location: Newark
(52.8300°N, 8.0000°E)
Time: 18:17:07
(UTC+00:00)

STARLINK-1122 - Pass Details

Date: 30 January 2020
Orbit: 349 x 351 km, 53.0° (Epoch: 21 February)

Event Time Altitude Azimuth Distance (km) Brightness Sun altitude
Rises 18:09:37 0° 282° (WNW) 2,174 8.1 -18.2°
Reaches altitude 10° 18:11:54 10° 266° (W) 1,327 6.9 -18.6°
Maximum altitude 18:14:14 21° 214° (SW) 854 5.0 -18.9°
Enters shadow 18:15:31 16° 178° (S) 1,016 5.0 -19.1°
